Location: ????????
(54.9045°N, 39.1041°E)
Time: 22:58:07
(UTC+00:00)

Cosmos 1536 - Visible Passes

Search period start: 23 July 2024 00:00
Search period end: 02 August 2024 00:00
Orbit: 514 x 539 km, 82.6° (Epoch: 23 July)

Date Brightness Start Highest point End Pass type
(mag) Time Alt. Az. Time Alt. Az. Time Alt. Az.
23 Jul 4.9 23:00:06 10° SE 23:03:05 21° E 23:06:05 10° NE visible
24 Jul 5.0 22:48:34 10° SE 22:51:26 19° E 22:54:17 10° NE visible
25 Jul 3.1 00:23:09 10° SSW 00:27:01 52° WNW 00:30:55 10° N visible
25 Jul 5.1 22:37:03 10° SE 22:39:45 18° E 22:42:27 10° NE visible
26 Jul 3.0 00:11:26 10° SSW 00:15:18 57° WNW 00:19:13 10° N visible
26 Jul 5.1 22:25:33 10° SE 22:28:04 17° E 22:30:36 10° NE visible
27 Jul 2.9 00:00:01 12° SSW 00:03:34 63° WNW 00:07:29 10° N visible
27 Jul 5.2 22:14:02 10° ESE 22:16:23 15° E 22:18:42 10° NE visible
27 Jul 2.8 23:48:34 15° SSW 23:51:49 69° WNW 23:55:45 10° N visible
28 Jul 5.3 22:02:33 10° ESE 22:04:40 14° E 22:06:46 10° NE visible
28 Jul 2.8 23:37:06 17° SSW 23:40:04 75° WNW 23:44:00 10° N visible
29 Jul 5.3 21:51:05 10° ESE 21:52:56 13° E 21:54:47 10° NE visible
29 Jul 2.7 23:25:36 20° SSW 23:28:16 82° W 23:32:13 10° N visible
30 Jul 5.3 21:39:41 10° ESE 21:41:12 12° E 21:42:42 10° ENE visible
30 Jul 2.7 23:14:03 23° S 23:16:29 89° WNW 23:20:25 10° NNE visible
31 Jul 5.4 21:28:22 10° E 21:29:26 11° E 21:30:31 10° ENE visible
31 Jul 2.7 23:02:30 25° S 23:04:41 84° E 23:08:37 10° NNE visible
01 Aug 5.0 00:39:00 10° W 00:41:12 14° WNW 00:43:23 10° NNW visible
01 Aug 2.8 22:50:54 28° S 22:52:51 77° E 22:56:47 10° NNE visible
